Location: St. Andrews
(45.0670°N, 67.0330°W)
Time: 10:52:47
(UTC-03:00)

Amateur Radio Satellites - All Passes

Search period start: 23 June 2017 10:22
Search period end: 24 June 2017 10:22
Location: St. Andrews, 45.0670°N, 67.0330°W

Satellite Date Start Highest point End Downlink Frequencies (MHz)
Time Altitude Azimuth
TIGRISAT 23 Jun 10:29:34 10:34:07 72° 74° (ENE) 10:38:47 435.000
DELFI C3 23 Jun 10:31:49 10:35:10 26° 95° (E) 10:38:31 145.870
EO-88 23 Jun 10:37:35 10:40:18 20° 93° (E) 10:43:00 145.990 - 145.960
CUBEBUG 2 23 Jun 10:46:44 10:49:57 18° 298° (WNW) 10:53:08 437.445
AO-73 23 Jun 10:53:11 10:57:22 39° 290° (WNW) 11:01:27 145.935
SEEDS 23 Jun 10:53:36 10:54:34 11° 300° (WNW) 10:55:31 437.485
POLYITAN 1 23 Jun 10:58:58 11:00:31 12° 59° (ENE) 11:02:04 437.675
YUBILEINY 23 Jun 11:02:54 11:11:29 57° 270° (W) 11:20:00 435.215
QB50P2 23 Jun 11:08:27 11:11:01 16° 62° (ENE) 11:13:36 145.880/145.840
UNISAT 6 23 Jun 11:11:14 11:15:33 41° 262° (W) 11:19:59 437.425
PRISM 23 Jun 11:12:01 11:15:40 32° 262° (W) 11:19:22 437.425
HO-68 23 Jun 11:17:37 11:22:08 18° 310° (NW) 11:26:38 435.675
Oscar 11 23 Jun 11:24:09 11:27:39 24° 294° (WNW) 11:31:07 .
FO-29 23 Jun 11:26:36 11:32:00 35° 267° (W) 11:38:05 435.910
AIST 2D 23 Jun 11:27:11 11:30:28 36° 72° (ENE) 11:33:46 435.315
UWE-3 23 Jun 11:27:22 11:29:11 12° 302° (WNW) 11:30:58 435.000/436.395/437.385
ZACube-1 23 Jun 11:27:26 11:30:29 18° 297° (WNW) 11:33:28 437.345
ISS 23 Jun 11:30:44 11:33:59 65° 334° (NNW) 11:37:16 437.550
EO-79 23 Jun 11:32:52 11:36:20 25° 66° (ENE) 11:39:49 145.935-145.965
ESTCUBE 1 23 Jun 11:43:33 11:45:04 11° 88° (E) 11:46:35 437.505/2401.250
Tancredo 1 23 Jun 11:43:55 11:46:44 34° 342° (NNW) 11:49:35 437.200
DUCHIFAT 1 23 Jun 11:49:52 11:53:33 30° 68° (ENE) 11:57:16 145.980
NANOSAT C BR1 23 Jun 11:56:36 12:00:32 39° 70° (ENE) 12:04:30 145.865
DELFI C3 23 Jun 12:06:35 12:09:53 26° 292° (WNW) 12:13:09 145.870
TIGRISAT 23 Jun 12:09:10 12:11:19 13° 272° (W) 12:13:30 435.000
EO-88 23 Jun 12:10:48 12:14:01 29° 290° (WNW) 12:17:13 145.990 - 145.960
Oscar 19 23 Jun 12:31:02 12:33:49 15° 57° (ENE) 12:36:36 437.125/150
POLYITAN 1 23 Jun 12:31:23 12:35:39 81° 257° (WSW) 12:39:58 437.675
SPROUT 23 Jun 12:38:11 12:39:27 11° 88° (E) 12:40:41 437.525
LO-87 23 Jun 12:41:46 12:45:25 87° 104° (ESE) 12:49:04 145.935 - 145.965
QB50P2 23 Jun 12:42:11 12:46:21 57° 259° (W) 12:50:36 145.880/145.840
AIST 2D 23 Jun 13:01:41 13:03:49 15° 268° (W) 13:05:59 435.315
Gurwin Techsat 1B 23 Jun 13:02:39 13:06:12 18° 59° (ENE) 13:09:45 435.225
YUBILEINY 23 Jun 13:04:49 13:06:10 10° 291° (WNW) 13:07:32 435.215
ISS 23 Jun 13:08:02 13:10:53 26° 353° (N) 13:13:45 437.550
EO-79 23 Jun 13:08:07 13:11:57 33° 263° (W) 13:15:50 145.935-145.965
BUGSAT 1 23 Jun 13:09:57 13:14:02 66° 74° (ENE) 13:18:12 437.445
ESTCUBE 1 23 Jun 13:17:55 13:22:25 76° 284° (WNW) 13:26:52 437.505/2401.250
Tancredo 1 23 Jun 13:20:24 13:22:55 23° 2° (N) 13:25:26 437.200
DUCHIFAT 1 23 Jun 13:25:36 13:29:11 27° 265° (W) 13:32:49 145.980
PCSat 23 Jun 13:27:18 13:32:37 59° 116° (ESE) 13:37:58 145.827
VELOX 1 23 Jun 13:30:59 13:35:06 36° 97° (E) 13:39:12 145.980
NANOSAT C BR1 23 Jun 13:33:12 13:36:23 20° 267° (W) 13:39:36 145.865
AO-7 23 Jun 13:43:36 13:48:50 19° 44° (NE) 13:54:06 .
DX 1 23 Jun 13:59:18 14:02:54 25° 95° (E) 14:06:29 434.975-435.025
Oscar 19 23 Jun 14:07:16 14:12:27 86° 257° (WSW) 14:17:38 437.125/150
SPROUT 23 Jun 14:11:32 14:15:51 74° 286° (WNW) 14:20:09 437.525
UKube-1 23 Jun 14:21:37 14:25:22 28° 96° (E) 14:29:07 .
50 SAT 23 Jun 14:23:37 14:27:02 70° 102° (ESE) 14:30:25 437.505
Gurwin Techsat 1B 23 Jun 14:40:17 14:45:35 71° 257° (WSW) 14:50:55 435.225
ITAMSAT 1 23 Jun 14:40:58 14:44:38 20° 60° (ENE) 14:48:18 435.822/435.867
ISS 23 Jun 14:45:00 14:48:00 31° 13° (NNE) 14:51:00 437.550
BUGSAT 1 23 Jun 14:48:22 14:49:52 12° 271° (W) 14:51:21 437.445
Tancredo 1 23 Jun 14:56:03 14:59:01 44° 22° (NNE) 15:01:58 437.200
VELOX 1 23 Jun 15:07:48 15:11:22 24° 295° (WNW) 15:14:55 145.980
PCSat 23 Jun 15:11:47 15:16:23 27° 317° (NW) 15:21:00 145.827
AO-7 23 Jun 15:31:55 15:40:08 68° 66° (ENE) 15:48:25 .
DX 1 23 Jun 15:35:11 15:39:08 34° 292° (WNW) 15:43:04 434.975-435.025
Oscar 19 23 Jun 15:51:02 15:52:30 11° 273° (W) 15:53:58 437.125/150
SO-50 23 Jun 15:54:30 15:59:01 67° 122° (ESE) 16:03:31 436.795
UKube-1 23 Jun 15:57:37 16:01:21 29° 293° (WNW) 16:05:05 .
ITUPSAT 1 23 Jun 16:15:08 16:19:43 43° 99° (E) 16:24:15 437.325
ITAMSAT 1 23 Jun 16:18:27 16:23:36 64° 258° (WSW) 16:28:49 435.822/435.867
MOZHAYETS 4 23 Jun 16:19:32 16:23:40 32° 96° (E) 16:27:45
ISS 23 Jun 16:21:25 16:24:43 73° 211° (SSW) 16:28:00 437.550
BEESAT 23 Jun 16:26:44 16:31:28 57° 101° (E) 16:36:08 436.000
Tancredo 1 23 Jun 16:31:50 16:34:31 28° 220° (SW) 16:37:12 437.200
CUBESAT XI-V 23 Jun 16:54:59 16:57:36 15° 90° (E) 17:00:12 437.345
DOVE 4 23 Jun 16:59:24 17:01:39 14° 61° (ENE) 17:03:56 437.250
CUTE-I 23 Jun 17:08:02 17:10:07 12° 54° (NE) 17:12:14 437.470
AO-7 23 Jun 17:26:29 17:33:29 30° 266° (W) 17:40:34 .
XW-2C 23 Jun 17:32:04 17:33:57 13° 63° (ENE) 17:35:50 145.795 - 145.815
SO-50 23 Jun 17:36:23 17:39:54 21° 322° (NW) 17:43:24 436.795
KAITUO 1B 23 Jun 17:51:37 17:54:04 17° 65° (ENE) 17:56:32 145.475/437.950
ITUPSAT 1 23 Jun 17:53:27 17:57:18 24° 296° (WNW) 18:01:07 437.325
MOZHAYETS 4 23 Jun 17:56:47 18:00:44 29° 293° (WNW) 18:04:39
ISS 23 Jun 17:59:51 18:00:40 11° 229° (SW) 18:01:29 437.550
BEESAT 23 Jun 18:05:28 18:08:48 19° 299° (WNW) 18:12:08 436.000
KKS-1 23 Jun 18:10:27 18:14:53 57° 101° (E) 18:19:17 437.445
HO-68 23 Jun 18:13:23 18:18:37 22° 53° (NE) 18:23:51 435.675
NUDT-PHONESAT 23 Jun 18:29:29 18:33:03 42° 72° (ENE) 18:36:38 437.300
CUBESAT XI-V 23 Jun 18:30:50 18:35:23 62° 287° (WNW) 18:39:54 437.345
DOVE 4 23 Jun 18:34:46 18:38:51 59° 259° (W) 18:43:04 437.250
XW-2F 23 Jun 18:37:17 18:41:05 67° 74° (ENE) 18:44:53 145.980 - 146.000
XW-2D 23 Jun 18:39:32 18:43:22 77° 76° (ENE) 18:47:13 145.860 - 145.880
CUTE-I 23 Jun 18:43:57 18:49:15 75° 73° (ENE) 18:54:37 437.470
LilacSat-2 23 Jun 18:44:50 18:48:43 89° 256° (WSW) 18:52:36 437.200
STARS 23 Jun 18:46:54 18:51:18 59° 102° (ESE) 18:55:41 437.465
CUTE 1.7 + AOD 2 23 Jun 18:47:32 18:50:14 17° 63° (ENE) 18:52:54 437.475
XW-2B 23 Jun 18:48:27 18:52:18 87° 257° (WSW) 18:56:10 145.730 - 145.750
XW-2C 23 Jun 19:03:55 19:07:41 55° 259° (W) 19:11:29 145.795 - 145.815
UWE-3 23 Jun 19:14:12 19:15:50 12° 58° (ENE) 19:17:29 435.000/436.395/437.385
KAITUO 1B 23 Jun 19:24:12 19:27:47 40° 262° (W) 19:31:22 145.475/437.950
AAUSAT CUBESAT 2 23 Jun 19:33:02 19:35:26 15° 63° (ENE) 19:37:48 437.432
STRAND 1 23 Jun 19:47:00 19:50:15 17° 90° (E) 19:53:28 437.568
KKS-1 23 Jun 19:48:06 19:51:00 17° 298° (WNW) 19:53:55 437.445
XW-2A 23 Jun 19:55:46 19:59:09 60° 75° (ENE) 20:02:35 145.665 - 145.685
HO-68 23 Jun 19:58:16 20:05:30 86° 255° (WSW) 20:12:46 435.675
NUDT-PHONESAT 23 Jun 20:04:57 20:07:09 15° 269° (W) 20:09:22 437.300
SEEDS 23 Jun 20:08:23 20:12:34 72° 75° (ENE) 20:16:46 437.485
CUBEBUG 2 23 Jun 20:08:29 20:12:59 59° 73° (ENE) 20:17:37 437.445
AO-73 23 Jun 20:14:34 20:18:10 23° 65° (ENE) 20:21:47 145.935
CUTE 1.7 + AOD 2 23 Jun 20:21:30 20:25:40 53° 260° (W) 20:29:50 437.475
STARS 23 Jun 20:24:26 20:27:11 16° 299° (WNW) 20:29:57 437.465
CUTE-I 23 Jun 20:26:48 20:29:53 15° 271° (W) 20:32:59 437.470
PCSat 23 Jun 20:30:43 20:34:12 17° 35° (NE) 20:37:41 145.827
Oscar 11 23 Jun 20:44:10 20:48:04 34° 69° (ENE) 20:52:00 .
UWE-3 23 Jun 20:46:56 20:51:30 88° 79° (ENE) 20:56:12 435.000/436.395/437.385
ZACube-1 23 Jun 20:47:12 20:51:36 52° 72° (ENE) 20:56:05 437.345
AAUSAT CUBESAT 2 23 Jun 21:06:24 21:10:27 55° 260° (W) 21:14:31 437.432
RS-15 23 Jun 21:09:19 21:19:55 38° 106° (ESE) 21:30:41 29.354- 29.394
BEESAT 3 23 Jun 21:15:42 21:16:53 11° 108° (ESE) 21:18:02 437.485
EO-88 23 Jun 21:18:16 21:20:00 13° 63° (ENE) 21:21:43 145.990 - 145.960
DELFI C3 23 Jun 21:19:22 21:22:18 21° 66° (ENE) 21:25:15 145.870
STRAND 1 23 Jun 21:24:46 21:29:55 67° 287° (WNW) 21:35:01 437.568
AO-85 23 Jun 21:30:49 21:34:22 29° 117° (ESE) 21:37:49 145.980
CUBEBUG 2 23 Jun 21:47:09 21:50:00 16° 271° (W) 21:52:53 437.445
SEEDS 23 Jun 21:47:38 21:48:44 11° 272° (W) 21:49:51 437.485
AO-73 23 Jun 21:49:52 21:54:08 41° 263° (W) 21:58:29 145.935
HO-68 23 Jun 21:49:53 21:54:12 17° 272° (W) 21:58:33 435.675
BEESAT 2 23 Jun 22:08:23 22:10:37 15° 110° (ESE) 22:12:52 435.950
YUBILEINY 23 Jun 22:10:08 22:17:55 37° 84° (E) 22:25:43 435.215
PCSat 23 Jun 22:13:08 22:18:35 72° 56° (ENE) 22:24:00 145.827
Oscar 11 23 Jun 22:20:41 22:24:15 24° 266° (W) 22:27:50 .
TIGRISAT 23 Jun 22:20:42 22:23:06 14° 88° (E) 22:25:27 435.000
ZACube-1 23 Jun 22:25:07 22:28:11 18° 269° (W) 22:31:17 437.345
UWE-3 23 Jun 22:27:48 22:28:37 10° 274° (W) 22:29:27 435.000/436.395/437.385
FO-29 23 Jun 22:32:03 22:39:13 38° 94° (E) 22:46:23 435.910
O/OREOS (USA 219) 23 Jun 22:36:04 22:40:24 46° 108° (ESE) 22:44:45 437.305
SO-50 23 Jun 22:44:09 22:47:25 19° 36° (NE) 22:50:40 436.795
ESTCUBE 1 23 Jun 22:44:37 22:47:11 15° 61° (ENE) 22:49:45 437.505/2401.250
M-CUBED/EXP-1 PRIME 23 Jun 22:46:34 22:49:54 33° 104° (ESE) 22:53:28 437.505
EO-88 23 Jun 22:49:39 22:53:15 51° 260° (W) 22:56:52 145.990 - 145.960
BEESAT 3 23 Jun 22:49:51 22:53:49 78° 305° (NW) 22:57:52 437.485
PRISM 23 Jun 22:51:00 22:54:29 26° 96° (E) 22:57:59 437.425
DELFI C3 23 Jun 22:53:18 22:56:53 34° 263° (W) 23:00:29 145.870
UNISAT 6 23 Jun 23:00:42 23:05:03 37° 97° (E) 23:09:19 437.425
STRAND 1 23 Jun 23:07:04 23:08:07 11° 306° (NW) 23:09:09 437.568
AO-85 23 Jun 23:11:07 23:14:42 30° 314° (NW) 23:18:13 145.980
NO-84 23 Jun 23:16:57 23:20:46 46° 135° (SE) 23:24:52 435.350 FM
RS-15 23 Jun 23:19:18 23:31:32 74° 309° (NW) 23:43:59 29.354- 29.394
LO-87 23 Jun 23:19:29 23:22:51 43° 73° (ENE) 23:26:17 145.935 - 145.965
SPROUT 23 Jun 23:33:34 23:35:16 12° 60° (ENE) 23:36:58 437.525
BEESAT 2 23 Jun 23:43:57 23:47:53 60° 308° (NW) 23:51:55 435.950
TIGRISAT 23 Jun 23:55:36 00:00:16 69° 286° (WNW) 00:04:50 435.000
PCSat 23 Jun 23:57:48 00:01:22 18° 255° (WSW) 00:04:56 145.827
YUBILEINY 24 Jun 00:05:50 00:14:23 54° 286° (WNW) 00:23:02 435.215
POLYITAN 1 24 Jun 00:15:33 00:17:55 14° 90° (E) 00:20:18 437.675
O/OREOS (USA 219) 24 Jun 00:16:27 00:20:02 22° 307° (NW) 00:23:37 437.305
FO-29 24 Jun 00:16:53 00:24:21 53° 293° (WNW) 00:31:52 435.910
ESTCUBE 1 24 Jun 00:18:59 00:23:28 66° 259° (WSW) 00:27:58 437.505/2401.250
M-CUBED/EXP-1 PRIME 24 Jun 00:21:29 00:24:13 20° 298° (WNW) 00:27:05 437.505
AIST 2D 24 Jun 00:23:15 00:26:28 33° 97° (E) 00:29:38 435.315
SO-50 24 Jun 00:23:53 00:28:25 80° 238° (WSW) 00:32:57 436.795
QB50P2 24 Jun 00:25:36 00:28:48 20° 93° (E) 00:31:57 145.880/145.840
PRISM 24 Jun 00:26:13 00:29:44 28° 293° (WNW) 00:33:14 437.425
VELOX 1 24 Jun 00:29:53 00:34:00 41° 70° (ENE) 00:38:08 145.980
BEESAT 3 24 Jun 00:30:00 00:32:06 14° 326° (NW) 00:34:12 437.485
UNISAT 6 24 Jun 00:37:42 00:41:35 26° 295° (WNW) 00:45:24 437.425
EO-79 24 Jun 00:50:21 00:54:15 33° 97° (E) 00:58:06 145.935-145.965
NO-84 24 Jun 00:54:33 00:58:27 39° 335° (NNW) 01:02:34 435.350 FM
LO-87 24 Jun 00:54:54 00:56:32 13° 269° (W) 00:58:11 145.935 - 145.965
DX 1 24 Jun 00:56:37 01:00:17 28° 67° (ENE) 01:03:59 434.975-435.025
50 SAT 24 Jun 00:57:18 01:00:21 32° 71° (ENE) 01:03:25 437.505
SPROUT 24 Jun 01:06:17 01:10:32 78° 257° (WSW) 01:14:51 437.525
DUCHIFAT 1 24 Jun 01:06:45 01:10:47 40° 98° (E) 01:14:46 145.980
NANOSAT C BR1 24 Jun 01:14:02 01:18:14 54° 100° (E) 01:22:24 145.865
UKube-1 24 Jun 01:17:47 01:21:35 31° 68° (ENE) 01:25:24 .
BEESAT 2 24 Jun 01:25:00 01:26:30 12° 329° (NNW) 01:28:01 435.950
RS-15 24 Jun 01:35:35 01:46:34 35° 339° (NNW) 01:57:30 29.354- 29.394
POLYITAN 1 24 Jun 01:49:51 01:54:04 56° 287° (WNW) 01:58:15 437.675
AIST 2D 24 Jun 01:57:07 01:59:25 17° 294° (WNW) 02:01:43 435.315
QB50P2 24 Jun 02:00:43 02:04:44 40° 290° (WNW) 02:08:44 145.880/145.840
BEESAT 24 Jun 02:00:56 02:02:33 12° 56° (NE) 02:04:10 436.000
FO-29 24 Jun 02:04:25 02:07:44 13° 312° (NW) 02:11:06 435.910
VELOX 1 24 Jun 02:07:21 02:10:37 20° 267° (W) 02:13:54 145.980
YUBILEINY 24 Jun 02:10:35 02:13:42 12° 311° (NW) 02:16:50 435.215
Oscar 19 24 Jun 02:17:11 02:21:35 28° 95° (E) 02:25:57 437.125/150
BUGSAT 1 24 Jun 02:24:43 02:29:00 87° 102° (ESE) 02:33:15 437.445
EO-79 24 Jun 02:26:22 02:29:52 25° 294° (WNW) 02:33:20 145.935-145.965
50 SAT 24 Jun 02:31:14 02:33:16 15° 267° (W) 02:35:17 437.505
DX 1 24 Jun 02:32:36 02:36:24 30° 264° (W) 02:40:13 434.975-435.025
NO-84 24 Jun 02:33:36 02:36:59 22° 356° (N) 02:40:26 435.350 FM
DUCHIFAT 1 24 Jun 02:43:00 02:46:12 21° 295° (WNW) 02:49:23 145.980
NANOSAT C BR1 24 Jun 02:50:51 02:53:32 16° 298° (WNW) 02:56:11 145.865
UKube-1 24 Jun 02:54:00 02:57:37 26° 265° (W) 03:01:14 .
Gurwin Techsat 1B 24 Jun 02:54:33 02:59:33 39° 98° (E) 03:04:30 435.225
MOZHAYETS 4 24 Jun 03:22:58 03:27:16 39° 69° (ENE) 03:31:36
ITUPSAT 1 24 Jun 03:23:28 03:28:12 63° 72° (ENE) 03:32:59 437.325
AO-7 24 Jun 03:32:53 03:38:12 18° 88° (E) 03:43:28 .
BEESAT 24 Jun 03:34:44 03:39:31 82° 73° (ENE) 03:44:21 436.000
RS-15 24 Jun 03:53:08 04:03:48 32° 14° (NNE) 04:14:11 29.354- 29.394
Oscar 19 24 Jun 03:56:15 04:01:00 39° 292° (WNW) 04:05:44 437.125/150
CUBESAT XI-V 24 Jun 03:59:59 04:03:18 20° 63° (ENE) 04:06:36 437.345
BUGSAT 1 24 Jun 04:02:32 04:03:40 11° 301° (WNW) 04:04:48 437.445
NO-84 24 Jun 04:11:50 04:15:39 28° 17° (NNE) 04:19:26 435.350 FM
ITAMSAT 1 24 Jun 04:29:19 04:34:12 38° 98° (E) 04:39:03 435.822/435.867
Gurwin Techsat 1B 24 Jun 04:34:44 04:39:22 31° 295° (WNW) 04:43:58 435.225
MOZHAYETS 4 24 Jun 05:00:47 05:04:33 24° 267° (W) 05:08:18
ITUPSAT 1 24 Jun 05:03:32 05:06:27 16° 270° (W) 05:09:24 437.325
KKS-1 24 Jun 05:10:04 05:14:27 67° 74° (ENE) 05:18:53 437.445
BEESAT 24 Jun 05:16:06 05:17:54 12° 272° (W) 05:19:42 436.000
AO-7 24 Jun 05:23:43 05:32:11 83° 109° (ESE) 05:40:34 .
BEESAT 3 24 Jun 05:28:04 05:30:49 17° 38° (NE) 05:33:33 437.485
CUBESAT XI-V 24 Jun 05:35:47 05:40:19 51° 261° (W) 05:44:50 437.345
STARS 24 Jun 05:45:01 05:49:21 67° 74° (ENE) 05:53:45 437.465
NO-84 24 Jun 05:49:20 05:53:45 84° 33° (NNE) 05:58:03 435.350 FM
AO-85 24 Jun 05:59:04 06:03:01 48° 50° (NE) 06:07:11 145.980
RS-15 24 Jun 06:07:16 06:19:27 62° 45° (NE) 06:31:00 29.354- 29.394
ITAMSAT 1 24 Jun 06:08:59 06:13:32 31° 296° (WNW) 06:18:05 435.822/435.867
BEESAT 2 24 Jun 06:22:33 06:25:44 21° 41° (NE) 06:28:53 435.950
DOVE 4 24 Jun 06:30:36 06:34:58 32° 96° (E) 06:39:30 437.250
XW-2C 24 Jun 06:35:57 06:37:46 13° 90° (E) 06:39:34 145.795 - 145.815
KKS-1 24 Jun 06:49:24 06:51:28 13° 270° (W) 06:53:34 437.445
KAITUO 1B 24 Jun 06:54:07 06:56:30 16° 92° (E) 06:58:52 145.475/437.950
CUTE-I 24 Jun 06:59:26 07:03:52 25° 94° (E) 07:08:16 437.470
STRAND 1 24 Jun 07:04:20 07:08:45 30° 65° (ENE) 07:13:11 437.568
BEESAT 3 24 Jun 07:04:50 07:08:51 71° 237° (WSW) 07:12:47 437.485
O/OREOS (USA 219) 24 Jun 07:05:37 07:08:33 17° 50° (NE) 07:11:27 437.305
AO-7 24 Jun 07:17:26 07:24:05 27° 309° (NW) 07:30:43 .
STARS 24 Jun 07:24:11 07:26:10 13° 270° (W) 07:28:09 437.465
HO-68 24 Jun 07:25:40 07:29:51 16° 87° (E) 07:34:01 435.675
NO-84 24 Jun 07:27:58 07:30:51 17° 235° (SW) 07:33:39 435.350 FM
NUDT-PHONESAT 24 Jun 07:31:31 07:35:05 43° 98° (E) 07:38:36 437.300
AO-85 24 Jun 07:40:06 07:43:08 20° 246° (WSW) 07:46:18 145.980
XW-2F 24 Jun 07:41:23 07:45:10 75° 102° (ESE) 07:48:53 145.980 - 146.000
XW-2D 24 Jun 07:44:06 07:47:55 87° 101° (ESE) 07:51:40 145.860 - 145.880
LilacSat-2 24 Jun 07:50:13 07:54:03 77° 283° (WNW) 07:57:48 437.200
XW-2B 24 Jun 07:53:05 07:56:52 76° 284° (WNW) 08:00:36 145.730 - 145.750
SEEDS 24 Jun 07:53:14 07:53:33 10° 88° (E) 07:53:52 437.485
CUBEBUG 2 24 Jun 07:59:30 08:01:11 12° 87° (E) 08:02:52 437.445
BEESAT 2 24 Jun 07:59:47 08:03:46 53° 240° (WSW) 08:07:41 435.950
CUTE 1.7 + AOD 2 24 Jun 08:04:44 08:08:03 22° 93° (E) 08:11:21 437.475
DOVE 4 24 Jun 08:08:19 08:12:36 33° 292° (WNW) 08:17:05 437.250
XW-2C 24 Jun 08:08:35 08:12:14 48° 288° (WNW) 08:15:51 145.795 - 145.815
YUBILEINY 24 Jun 08:17:32 08:23:50 21° 59° (ENE) 08:30:05 435.215
RS-15 24 Jun 08:20:23 08:31:38 48° 250° (WSW) 08:42:22 29.354- 29.394
KAITUO 1B 24 Jun 08:27:13 08:30:40 37° 289° (WNW) 08:34:05 145.475/437.950
UWE-3 24 Jun 08:35:47 08:38:44 17° 90° (E) 08:41:37 435.000/436.395/437.385
CUTE-I 24 Jun 08:38:59 08:44:07 47° 292° (WNW) 08:49:14 437.470
STRAND 1 24 Jun 08:43:01 08:47:47 38° 263° (W) 08:52:36 437.568
O/OREOS (USA 219) 24 Jun 08:43:58 08:48:25 65° 249° (WSW) 08:52:50 437.305
AAUSAT CUBESAT 2 24 Jun 08:47:01 08:50:00 19° 92° (E) 08:52:58 437.432
FO-29 24 Jun 08:48:14 08:52:35 20° 54° (NE) 08:57:17 435.910
XW-2A 24 Jun 08:48:14 08:51:34 47° 100° (E) 08:54:50 145.665 - 145.685
Tancredo 1 24 Jun 09:03:53 09:06:10 20° 137° (SE) 09:08:29 437.200
ISS 24 Jun 09:04:43 09:05:49 11° 131° (SE) 09:06:55 437.550
NUDT-PHONESAT 24 Jun 09:06:28 09:08:37 15° 296° (WNW) 09:10:46 437.300
HO-68 24 Jun 09:11:22 09:18:36 84° 106° (ESE) 09:25:46 435.675
TIGRISAT 24 Jun 09:21:05 09:23:59 17° 61° (ENE) 09:26:54 435.000
SEEDS 24 Jun 09:25:35 09:29:46 76° 284° (WNW) 09:33:54 437.485
CUBEBUG 2 24 Jun 09:33:39 09:38:25 81° 284° (WNW) 09:43:04 437.445
M-CUBED/EXP-1 PRIME 24 Jun 09:34:42 09:37:56 58° 68° (ENE) 09:41:10 437.505
AO-73 24 Jun 09:35:48 09:39:52 33° 96° (E) 09:43:50 145.935
CUTE 1.7 + AOD 2 24 Jun 09:40:09 09:43:58 34° 290° (WNW) 09:47:46 437.475
PRISM 24 Jun 09:42:10 09:45:30 25° 67° (ENE) 09:48:51 437.425
UNISAT 6 24 Jun 10:00:58 10:05:16 40° 70° (ENE) 10:09:39 437.425
Oscar 11 24 Jun 10:04:49 10:09:03 52° 100° (E) 10:13:14 .
ZACube-1 24 Jun 10:09:34 10:14:06 84° 103° (ESE) 10:18:30 437.345
UWE-3 24 Jun 10:11:00 10:15:33 55° 288° (WNW) 10:19:57 435.000/436.395/437.385
EO-88 24 Jun 10:18:15 10:19:30 11° 90° (E) 10:20:44 145.990 - 145.960
